Showing default

COSMOS 2522 (GLONASS), 42939

Orbit data source: Space-Track

COSMOS 2522 (GLONASS), 42939 is a Commonwealth of Independent States-origin payload satellite in MEO that was launched on Fri, 22 Sep 2017 UTC via a SOYUZ-2-1B launch vehicle from the Plesetsk Missile And Space Complex (PKMTR). Payload-class satellites include a variety of spacecraft equipped with specific instruments for various scientific and technological missions. These include communications satellites like Starlink; space stations such as the ISS; scientific satellites like the Hubble; Earth observation satellites from companies like Planet Labs, Umbra, and HawkEye 360; GPS; miniature CubeSats for education and research; and military/defense satellites.

Loading next visibility...
Identifier
42939, 2017-055A
Orbit
MEO
Country
Flag of CISCIS
Related business
Manufacturer
Resehetnev ISS
Mission
Operational Defense Navigation
Bus & Motor
URAGAN, Unknown motor
Mass
1,450 kg wet, ~1,200 kg dry
Launch date (UTC)
2017-09-22 (9 years ago)
Launch vehicle
SOYUZ-2-1B
Launch site
Plesetsk Missile And Space Complex (PKMTR)
Object type
Payload
Rocket body
Debris
Shape & HBR
Cyl + 1 Ant + 2 Pan, 3.9 m
Radar Cross Section
8.467 m², Large (>1 m²)

Expand to show TLE details & history
Last TLE update: 2 days ago

TLE from 2 days ago
0 COSMOS 2522 (GLONASS)
1 42939U 17055A   26171.87700781  .00000069  00000-0  00000+0 0  9994
2 42939  64.0794 191.7591 0011202 244.2944 115.6333  2.13101192 68058
Epoch: 2026-06-20T21:02Z
TLE epoch observation values (Epoch: 2026-06-20T21:02:53.474Z)
Latitude
0.00005°
Longitude
-33.04645°
Altitude
19,142.878 km
Speed
3.951 km/s
True Right ascension
12h 47m 02s
True Declination
0° 00' 00"
Sunlit
Object was in daylight at epoch
Visualization orbit readout
Latitude
Unknown
Longitude
Unknown
Altitude
Unknown
Speed
Unknown
Apparent Right ascension
Unknown
Apparent Declination
Unknown
Sunlit
N/A
Visualization observer readout
Local Sidereal Time
21:28:09
Azimuth
Unknown
Elevation
Unknown
Doppler factor
Unknown
Orbital elements
Apogee altitude
19,158.173 km
Perigee altitude
19,101.025 km
Semi-major axis
25,507.736 km
Eccentricity
0.00112
Inclination
64.0794°
RAAN
191.7591°
Arg. of periapsis
244.2944°
True anomaly
115.74896°
Mean anomaly
115.6333°
Eccentric anomaly
115.69114°
Mean motion
0.53276 °/min
Orbital period
675.72 mins
BSTAR
0
Loading maneuver chart data...
Computing Atmospheric mass density...
Loading historical data...
Loading historical data...
Loading historical data...
Loading historical data...
Loading historical data...
Loading historical data...
Loading historical data...
Other satellites on launch #55 in the year 2017 (2017-09-22 UTC)

Documentation

Showing up to 5 results
|